Location: Unspecified
(0.0000°N, 0.0000°E)
Time: 20:26:11
(UTC+01:00)

GPS 2-15 Rocket1 - Visible Passes

Search period start: 13 February 2016 00:00
Search period end: 23 February 2016 00:00
Orbit: 625 x 677 km, 19.8° (Epoch: 13 February)

Date Brightness Start Highest point End Pass type
(mag) Time Alt. Az. Time Alt. Az. Time Alt. Az.
13 Feb 4.6 06:12:16 14° NNW 06:15:14 26° NNE 06:19:08 10° ENE visible
13 Feb 3.4 20:08:03 10° WSW 20:12:59 68° NNW 20:16:02 23° ENE visible
13 Feb 6.2 21:53:31 10° WNW 21:53:42 11° WNW 21:53:42 11° WNW visible
14 Feb 5.7 04:59:37 13° NE 04:59:37 13° NE 05:00:30 10° ENE visible
14 Feb 3.7 06:37:26 10° NW 06:41:55 48° NNE 06:46:25 10° E visible
14 Feb 4.2 20:35:04 10° W 20:39:37 36° NNW 20:41:04 30° NNE visible
15 Feb 4.5 05:24:39 28° NNE 05:24:39 28° NNE 05:28:18 10° E visible
15 Feb 5.0 21:02:38 10° WNW 21:06:06 21° NNW 21:06:06 21° NNW visible
16 Feb 3.4 05:49:41 41° NNW 05:50:56 54° NNE 05:55:29 10° E visible
16 Feb 4.5 19:44:07 10° W 19:48:34 33° NNW 19:53:01 10° NE visible
16 Feb 5.9 21:30:52 10° NW 21:31:08 11° NW 21:31:08 11° NW visible
17 Feb 6.1 04:37:04 12° E 04:37:04 12° E 04:37:27 10° E visible
17 Feb 3.1 06:14:44 23° WNW 06:17:34 76° SSW 06:22:12 10° ESE visible
17 Feb 5.1 20:11:44 10° WNW 20:15:19 20° NNW 20:18:29 11° NNE visible
18 Feb 4.8 05:02:06 30° E 05:02:06 30° E 05:04:33 10° ESE visible
18 Feb 4.0 06:39:51 10° W 06:44:12 38° SSW 06:48:32 10° SE visible
18 Feb 5.5 20:40:08 10° NW 20:42:12 12° NNW 20:43:30 11° N visible
19 Feb 3.4 05:27:08 60° SSE 05:27:08 60° SSE 05:31:12 10° ESE visible
20 Feb 4.0 05:52:09 31° SW 05:53:12 35° SSW 05:57:28 10° SE visible
20 Feb 5.6 19:49:28 10° NNW 19:51:11 12° NNW 19:52:55 10° N visible
21 Feb 5.9 04:39:29 14° ESE 04:39:29 14° ESE 04:40:12 10° ESE visible
21 Feb 4.9 06:17:10 13° WSW 06:19:55 20° SSW 06:23:21 10° SSE visible
22 Feb 5.2 05:04:28 21° SSE 05:04:28 21° SSE 05:06:24 10° SE visible
22 Feb 5.4 06:44:52 10° SW 06:46:46 12° SSW 06:48:41 10° S visible
